Location: Mountain Grove
(34.0887°N, 86.6172°W)
Time: 20:11:32
(UTC+00:00)

Atlas Centaur 2 - Pass Details

Date: 14 July 2020
Orbit: 459 x 1310 km, 30.4° (Epoch: 08 August)

Event Time Altitude Azimuth Distance (km) Brightness Sun altitude
Rises 02:50:18 0° 262° (W) 2,894 5.5 -19.4°
Reaches altitude 10° 02:53:10 10° 242° (WSW) 2,130 4.5 -19.9°
Maximum altitude 02:56:24 17° 202° (SSW) 1,853 3.7 -20.3°
Enters shadow 02:56:42 17° 197° (SSW) 1,871 3.7 -20.4°
